Waarnemingen

Advertentie
Mijn weer
Garmisch-Partenkirchen, Duitsland (10963): temperatuur & dauwpunt: 12.10.2017 07:00:00 - 18.10.2017 07:00:00 (CEST)Garmisch-Partenkirchen, Duitsland (10963): temperatuur 5cm & temperatuur -5cm: 12.10.2017 07:00:00 - 18.10.2017 07:00:00 (CEST)Garmisch-Partenkirchen, Duitsland (10963): temperatuur -20cm & temperatuur -100cm: 12.10.2017 07:00:00 - 18.10.2017 07:00:00 (CEST)Garmisch-Partenkirchen, Duitsland (10963): windsnelheid & windstoten: 12.10.2017 07:00:00 - 18.10.2017 07:00:00 (CEST)Garmisch-Partenkirchen, Duitsland (10963): windrichting: 12.10.2017 07:00:00 - 18.10.2017 07:00:00 (CEST)Garmisch-Partenkirchen, Duitsland (10963): luchtdruk: 12.10.2017 07:00:00 - 18.10.2017 07:00:00 (CEST)Garmisch-Partenkirchen, Duitsland (10963): zicht: 12.10.2017 07:00:00 - 18.10.2017 07:00:00 (CEST)Garmisch-Partenkirchen, Duitsland (10963): Zonneschijnduur: 12.10.2017 07:00:00 - 18.10.2017 07:00:00 (CEST)Garmisch-Partenkirchen, Duitsland (10963): neerslag: 12.10.2017 07:00:00 - 18.10.2017 07:00:00 (CEST)
Datum & Tijd tt [°C] td [°C] tt 5cm [°C] tt -5cm [°C] tt -20cm [°C] tt -100cm [°C] ff [km/u] ff [kn] fx [km/u] fx [kn] dd ppp [hPa] vv [km] sd [min] rr [mm]
18.10.2017 07:00:00 4,5 3,5 2,2 6,9 10,4 13,1 - - - - - 1020,8 70 0 0,0
18.10.2017 06:00:00 4,5 3,8 2,7 7,2 10,6 13,1 - - - - - 1021,1 70 0 0,0
18.10.2017 05:00:00 4,5 4,0 2,9 7,6 10,9 13,1 - - - - - 1021,4 70 0 0,0
18.10.2017 04:00:00 5,0 4,1 3,0 7,9 11,2 13,1 - - - - - 1021,6 68 0 0,0
18.10.2017 03:00:00 5,1 4,3 3,0 8,3 11,6 13,1 - - - - - 1022,1 70 0 0,0
18.10.2017 02:00:00 5,6 4,8 3,3 8,8 11,9 13,1 - - - - - 1022,1 56 0 0,0
18.10.2017 01:00:00 6,0 5,3 4,6 9,4 12,3 13,1 - - - - - 1021,7 43 0 0,0
18.10.2017 00:00:00 6,8 5,9 5,1 10,0 12,6 13,1 - - - - - 1021,7 48 0 0,0
17.10.2017 23:00:00 7,4 6,2 5,0 10,7 13,0 13,1 - - - - - 1021,7 56 0 0,0
17.10.2017 22:00:00 8,3 6,5 5,9 11,5 13,3 13,1 - - - - - 1021,6 38 0 0,0
17.10.2017 21:00:00 9,4 7,2 7,4 12,5 13,7 13,1 - - - - - 1021,6 26 0 0,0
17.10.2017 20:00:00 11,3 8,0 8,7 13,6 13,9 13,1 - - - - - 1021,4 44 0 0,0
17.10.2017 19:00:00 13,1 8,5 11,1 15,0 14,0 13,1 - - - - - 1020,6 70 0 0,0
17.10.2017 18:00:00 17,7 8,8 14,3 16,6 13,8 13,1 - - - - - 1019,3 70 28 0,0
17.10.2017 17:00:00 21,5 6,5 21,2 17,9 13,4 13,1 - - - - - 1018,5 70 59 0,0
17.10.2017 16:00:00 21,9 5,7 23,7 18,3 12,8 13,1 - - - - - 1018,8 70 60 0,0
17.10.2017 15:00:00 22,6 5,8 26,0 17,9 11,9 13,1 - - - - - 1019,3 70 60 0,0
17.10.2017 14:00:00 22,2 3,9 24,7 16,8 11,0 13,1 - - - - - 1020,5 65 60 0,0
17.10.2017 13:00:00 21,7 3,5 24,7 14,5 10,3 13,1 - - - - - 1021,5 64 60 0,0
17.10.2017 12:00:00 19,5 5,2 21,5 11,1 9,9 13,1 - - - - - 1023,1 69 60 0,0
17.10.2017 11:00:00 17,5 5,6 17,1 9,9 9,6 13,1 - - - - - 1024,2 70 60 0,0
17.10.2017 10:00:00 11,4 6,1 10,4 7,1 9,7 13,1 - - - - - 1026,8 65 60 0,0
17.10.2017 09:00:00 4,8 4,1 3,7 6,3 9,9 13,1 - - - - - 1029,3 45 19 0,0
17.10.2017 08:00:00 4,1 3,7 2,6 6,4 10,2 13,1 - - - - - 1029,4 49 0 0,0
17.10.2017 07:00:00 4,3 3,8 2,7 6,7 10,5 13,1 - - - - - 1029,3 44 0 0,0
17.10.2017 06:00:00 4,4 4,0 1,9 7,1 10,8 13,1 - - - - - 1029,1 45 0 0,0
17.10.2017 05:00:00 4,7 4,3 2,5 7,5 11,1 13,1 - - - - - 1029,1 44 0 0,0
17.10.2017 04:00:00 5,0 4,5 3,4 7,9 11,4 13,1 - - - - - 1029,2 20 0 0,0
17.10.2017 03:00:00 5,4 4,9 3,1 8,4 11,8 13,1 - - - - - 1029,4 38 0 0,0
17.10.2017 02:00:00 5,6 5,0 3,8 8,9 12,1 13,1 - - - - - 1029,7 45 0 0,0
17.10.2017 01:00:00 6,0 5,3 4,7 9,5 12,5 13,1 - - - - - 1029,8 41 0 0,0
17.10.2017 00:00:00 6,7 5,7 4,5 10,1 12,9 13,1 - - - - - 1029,7 61 0 0,0
16.10.2017 23:00:00 7,3 5,8 5,3 10,8 13,3 13,1 - - - - - 1029,6 42 0 0,0
16.10.2017 22:00:00 8,0 6,4 6,2 11,6 13,6 13,1 - - - - - 1029,2 38 0 0,0
16.10.2017 21:00:00 9,4 7,0 7,1 12,6 14,0 13,1 - - - - - 1028,8 43 0 0,0
16.10.2017 20:00:00 10,6 7,3 8,1 13,7 14,3 13,1 - - - - - 1028,2 29 0 0,0
16.10.2017 19:00:00 13,0 7,5 10,0 15,2 14,5 13,1 - - - - - 1027,0 70 0 0,0
16.10.2017 18:00:00 18,7 9,2 15,2 17,0 14,4 13,1 - - - - - 1024,7 70 60 0,0
16.10.2017 17:00:00 22,0 7,4 20,8 18,8 14,0 13,1 - - - - - 1023,6 70 60 0,0
16.10.2017 16:00:00 23,3 6,2 24,7 19,5 13,3 13,1 - - - - - 1023,4 46 60 0,0
16.10.2017 15:00:00 23,5 5,7 27,0 19,1 12,4 13,1 - - - - - 1023,6 58 60 0,0
16.10.2017 14:00:00 23,6 5,7 27,4 17,7 11,5 13,1 - - - - - 1024,0 57 60 0,0
16.10.2017 13:00:00 22,0 4,7 25,5 15,3 10,7 13,1 - - - - - 1025,0 67 60 0,0
16.10.2017 12:00:00 20,3 5,9 22,8 12,0 10,2 13,1 - - - - - 1026,1 70 60 0,0
16.10.2017 11:00:00 16,6 7,0 16,2 10,6 9,9 13,1 - - - - - 1027,7 70 60 0,0
16.10.2017 10:00:00 12,6 6,5 12,2 7,8 10,0 13,1 - - - - - 1029,2 70 60 0,0
16.10.2017 09:00:00 6,2 5,8 5,1 7,0 10,2 13,1 - - - - - 1031,2 27 23 0,0
16.10.2017 08:00:00 5,3 4,9 3,3 7,0 10,4 13,1 - - - - - 1031,1 56 0 0,0
16.10.2017 07:00:00 5,5 5,2 2,9 7,4 10,7 13,1 - - - - - 1031,1 69 0 0,0
16.10.2017 06:00:00 5,5 5,2 4,0 7,7 11,0 13,1 - - - - - 1031,1 46 0 0,0
16.10.2017 05:00:00 5,9 5,6 4,1 8,1 11,3 13,1 - - - - - 1031,0 68 0 0,0
16.10.2017 04:00:00 6,2 5,9 4,2 8,5 11,6 13,1 - - - - - 1031,1 60 0 0,0
16.10.2017 03:00:00 6,6 6,3 4,0 8,9 11,9 13,1 - - - - - 1031,1 63 0 0,0
16.10.2017 02:00:00 6,7 6,4 5,5 9,4 12,2 13,1 - - - - - 1030,9 30 0 0,0
16.10.2017 01:00:00 7,2 6,9 5,8 9,9 12,6 13,1 - - - - - 1030,6 44 0 0,0
16.10.2017 00:00:00 7,5 7,1 5,8 10,5 12,9 13,1 - - - - - 1030,5 61 0 0,0
15.10.2017 23:00:00 8,0 7,4 6,4 11,2 13,3 13,1 - - - - - 1030,0 31 0 0,0
15.10.2017 22:00:00 9,0 8,0 6,9 11,9 13,7 13,2 - - - - - 1029,3 52 0 0,0
15.10.2017 21:00:00 10,2 8,8 7,8 12,8 14,0 13,2 - - - - - 1028,9 57 0 0,0
15.10.2017 20:00:00 11,4 9,5 8,9 14,0 14,3 13,2 - - - - - 1028,3 56 0 0,0
15.10.2017 19:00:00 13,9 10,0 10,6 15,4 14,5 13,2 - - - - - 1027,0 70 3 0,0
15.10.2017 18:00:00 19,1 9,8 15,6 17,1 14,4 13,2 - - - - - 1024,9 70 60 0,0
15.10.2017 17:00:00 21,7 8,4 21,6 18,8 14,0 13,1 - - - - - 1023,9 54 60 0,0
15.10.2017 16:00:00 22,7 8,9 25,3 19,6 13,2 13,1 - - - - - 1023,7 56 60 0,0
15.10.2017 15:00:00 22,7 9,5 25,8 19,2 12,3 13,1 - - - - - 1023,9 35 60 0,0
15.10.2017 14:00:00 22,5 8,8 25,9 17,8 11,4 13,1 - - - - - 1024,5 70 60 0,0
15.10.2017 13:00:00 22,0 7,0 27,5 15,6 10,5 13,1 - - - - - 1024,9 70 60 0,0
15.10.2017 12:00:00 20,3 7,9 23,6 12,3 10,0 13,2 - - - - - 1026,1 70 60 0,0
15.10.2017 11:00:00 17,1 8,7 16,9 10,5 9,6 13,2 - - - - - 1027,3 70 60 0,0
15.10.2017 10:00:00 11,8 8,6 11,2 7,5 9,7 13,2 - - - - - 1029,2 70 60 0,0
15.10.2017 09:00:00 5,9 5,4 5,1 6,7 9,9 13,2 - - - - - 1031,1 50 30 0,0
15.10.2017 08:00:00 4,6 4,3 2,9 6,7 10,1 13,2 - - - - - 1031,4 45 0 0,0
15.10.2017 07:00:00 4,7 4,4 2,7 7,0 10,4 13,2 - - - - - 1031,4 33 0 0,0
15.10.2017 06:00:00 4,9 4,6 3,4 7,4 10,7 13,2 - - - - - 1031,2 32 0 0,0
15.10.2017 05:00:00 5,1 4,8 3,8 7,8 11,0 13,2 - - - - - 1030,9 26 0 0,0
15.10.2017 04:00:00 5,7 5,3 3,6 8,2 11,3 13,2 - - - - - 1030,9 53 0 0,0
15.10.2017 03:00:00 5,8 5,5 4,5 8,6 11,6 13,2 - - - - - 1031,1 19 0 0,0
15.10.2017 02:00:00 6,3 5,9 4,8 9,1 11,9 13,2 - - - - - 1031,0 22 0 0,0
15.10.2017 01:00:00 6,5 6,1 5,1 9,6 12,3 13,2 - - - - - 1031,0 31 0 0,0
15.10.2017 00:00:00 7,2 6,7 6,1 10,1 12,6 13,2 - - - - - 1030,9 19 0 0,0
14.10.2017 23:00:00 7,7 7,0 6,3 10,8 13,0 13,2 - - - - - 1030,8 36 0 0,0
14.10.2017 22:00:00 8,3 7,6 6,4 11,6 13,4 13,2 - - - - - 1030,3 28 0 0,0
14.10.2017 21:00:00 9,9 8,4 7,7 12,4 13,7 13,2 - - - - - 1029,9 34 0 0,0
14.10.2017 20:00:00 10,7 8,8 8,4 13,5 14,0 13,2 - - - - - 1029,5 44 0 0,0
14.10.2017 19:00:00 13,1 9,5 10,9 14,9 14,2 13,2 - - - - - 1028,3 70 4 0,0
14.10.2017 18:00:00 18,3 8,8 16,1 16,6 14,1 13,2 - - - - - 1026,1 70 60 0,0
14.10.2017 17:00:00 19,9 8,2 19,7 18,3 13,7 13,2 - - - - - 1025,6 70 60 0,0
14.10.2017 16:00:00 20,8 8,2 23,3 19,2 13,0 13,2 - - - - - 1025,1 30 60 0,0
14.10.2017 15:00:00 21,3 9,2 24,7 18,8 12,1 13,2 - - - - - 1025,1 15 60 0,0
14.10.2017 14:00:00 20,7 7,4 24,7 17,5 11,2 13,2 - - - - - 1025,5 51 60 0,0
14.10.2017 13:00:00 20,6 7,2 24,3 15,3 10,3 13,2 - - - - - 1026,0 70 60 0,0
14.10.2017 12:00:00 18,0 7,3 21,1 12,3 9,8 13,2 - - - - - 1027,5 52 60 0,0
14.10.2017 11:00:00 14,9 7,1 15,2 10,2 9,4 13,2 - - - - - 1028,9 70 60 0,0
14.10.2017 10:00:00 11,1 8,1 10,4 7,1 9,5 13,2 - - - - - 1030,3 61 60 0,0
14.10.2017 09:00:00 5,6 5,1 4,8 6,4 9,7 13,2 - - - - - 1032,0 32 33 0,0
14.10.2017 08:00:00 4,0 3,8 2,5 6,5 9,9 13,2 - - - - - 1032,2 18 0 0,0
14.10.2017 07:00:00 4,3 4,0 2,7 6,8 10,2 13,2 - - - - - 1032,0 21 0 0,0
14.10.2017 06:00:00 4,5 4,2 2,8 7,1 10,5 13,2 - - - - - 1031,7 26 0 0,0
14.10.2017 05:00:00 4,7 4,4 3,6 7,4 10,7 13,2 - - - - - 1031,5 14 0 0,0
14.10.2017 04:00:00 5,1 4,8 4,0 7,8 11,0 13,2 - - - - - 1031,4 15 0 0,0
14.10.2017 03:00:00 5,2 4,9 3,9 8,3 11,4 13,2 - - - - - 1031,6 9 0 0,0
14.10.2017 02:00:00 5,9 5,5 4,2 8,8 11,7 13,2 - - - - - 1031,3 20 0 0,0
14.10.2017 01:00:00 6,9 6,6 5,0 9,3 12,0 13,2 - - - - - 1031,0 18 0 0,0
14.10.2017 00:00:00 6,9 6,5 5,2 9,8 12,4 13,2 - - - - - 1031,0 19 0 0,0
13.10.2017 23:00:00 7,1 6,7 5,7 10,4 12,7 13,2 - - - - - 1030,8 10 0 0,0
13.10.2017 22:00:00 8,0 7,5 6,4 11,1 13,1 13,2 - - - - - 1030,6 8 0 0,0
13.10.2017 21:00:00 9,1 8,4 6,5 12,0 13,4 13,2 - - - - - 1030,1 23 0 0,0
13.10.2017 20:00:00 9,8 8,8 8,2 13,0 13,7 13,2 - - - - - 1029,2 21 0 0,0
13.10.2017 19:00:00 12,0 10,0 9,8 14,4 13,9 13,2 - - - - - 1027,9 41 6 0,0
13.10.2017 18:00:00 15,3 10,6 12,9 15,9 13,9 13,2 - - - - - 1026,4 52 48 0,0
13.10.2017 17:00:00 17,4 9,7 17,3 17,6 13,6 13,2 - - - - - 1025,7 56 60 0,0
13.10.2017 16:00:00 18,6 9,5 21,3 18,4 12,9 13,2 - - - - - 1025,3 34 60 0,0
13.10.2017 15:00:00 18,5 9,4 22,3 18,3 12,1 13,2 - - - - - 1025,5 54 60 0,0
13.10.2017 14:00:00 18,1 6,6 23,1 16,8 11,3 13,3 - - - - - 1025,7 52 60 0,0
13.10.2017 13:00:00 17,6 6,3 21,1 14,8 10,6 13,3 - - - - - 1026,9 60 60 0,0
13.10.2017 12:00:00 15,9 7,2 19,7 12,5 10,1 13,3 - - - - - 1027,8 56 60 0,0
13.10.2017 11:00:00 14,2 7,7 15,5 10,4 9,7 13,3 - - - - - 1028,7 62 60 0,0
13.10.2017 10:00:00 11,6 7,7 11,2 8,3 9,7 13,3 - - - - - 1029,4 44 60 0,0
13.10.2017 09:00:00 7,1 5,9 6,3 7,2 9,9 13,3 - - - - - 1030,7 30 35 0,0
13.10.2017 08:00:00 4,9 4,5 3,4 7,0 10,1 13,3 - - - - - 1031,1 13 0 0,0
13.10.2017 07:00:00 5,5 5,0 3,7 7,4 10,3 13,3 - - - - - 1030,8 14 0 0,0
13.10.2017 06:00:00 6,1 5,5 3,7 7,8 10,6 13,3 - - - - - 1030,7 20 0 0,0
13.10.2017 05:00:00 6,9 6,3 5,3 8,4 10,7 13,3 - - - - - 1030,3 19 0 0,0
13.10.2017 04:00:00 7,7 6,6 7,0 8,7 10,9 13,3 - - - - - 1030,3 41 0 0,0
13.10.2017 03:00:00 6,4 6,1 6,4 8,4 11,2 13,3 - - - - - 1030,8 16 0 0,0
13.10.2017 02:00:00 5,9 5,5 4,5 8,6 11,5 13,3 - - - - - 1031,1 19 0 0,0
13.10.2017 01:00:00 6,2 5,6 4,4 9,1 11,8 13,3 - - - - - 1031,0 21 0 0,0
13.10.2017 00:00:00 6,4 5,8 5,3 9,6 12,2 13,3 - - - - - 1030,6 18 0 0,0
12.10.2017 23:00:00 7,2 6,6 5,7 10,2 12,6 13,3 - - - - - 1030,0 19 0 0,0
12.10.2017 22:00:00 7,8 6,9 5,4 11,0 12,9 13,3 - - - - - 1029,6 21 0 0,0
12.10.2017 21:00:00 8,8 7,5 6,8 11,9 13,3 13,3 - - - - - 1028,4 31 0 0,0
12.10.2017 20:00:00 10,3 8,2 8,2 13,0 13,6 13,3 - - - - - 1027,4 34 0 0,0
12.10.2017 19:00:00 13,5 8,8 10,3 14,4 13,8 13,3 - - - - - 1025,7 62 8 0,0
12.10.2017 18:00:00 17,0 8,0 15,4 16,0 13,8 13,3 - - - - - 1024,1 70 60 0,0
12.10.2017 17:00:00 19,5 6,5 19,2 17,7 13,4 13,3 - - - - - 1022,3 67 60 0,0
12.10.2017 16:00:00 20,5 6,3 22,5 18,6 12,7 13,3 0 0 25 14 N 1022,1 58 57 0,0
12.10.2017 15:00:00 20,9 6,4 23,8 18,7 11,8 13,3 4 2 14 8 ZZO 1021,9 70 54 0,0
12.10.2017 14:00:00 21,0 4,1 23,8 17,2 10,8 13,3 0 0 21 11 N 1021,6 70 59 0,0
12.10.2017 13:00:00 20,3 4,1 22,7 15,2 9,9 13,4 0 0 8 5 N 1022,1 62 58 0,0
12.10.2017 12:00:00 16,7 4,9 19,2 11,9 9,2 13,4 0 0 6 3 N 1023,6 62 54 0,0
12.10.2017 11:00:00 14,8 4,7 14,6 9,5 8,9 13,4 0 0 2 1 N 1023,8 70 60 0,0
12.10.2017 10:00:00 10,6 6,1 9,6 6,4 8,9 13,4 0 0 10 5 N 1024,5 47 60 0,0
12.10.2017 09:00:00 5,3 4,2 4,1 5,7 9,1 13,4 0 0 8 4 N 1025,7 53 39 0,0
12.10.2017 08:00:00 3,3 3,0 2,1 5,7 9,4 13,4 4 2 8 4 W 1026,1 33 0 0,0
12.10.2017 07:00:00 3,4 3,1 1,7 6,0 9,6 13,4 5 3 9 5 ZW 1025,9 41 0 0,0

tt = temperatuur
td = dauwpunt
tt 5cm = temperatuur 5cm
tt -5cm = temperatuur -5cm
tt -20cm = temperatuur -20cm
tt -100cm = temperatuur -100cm
ff = windsnelheid
fx = windstoten
dd = windrichting
ppp = luchtdruk
vv = zicht
sd = Zonneschijnduur
rr = neerslag

Weerstations in de omgeving